When you browse on this site, cookies collect data to enhance your experience and personalize the content and advertising you see.
Visit our Privacy Policy to learn more. By continuing to use the site, you agree to this use of cookies and data.

Meteo pe oră la Ali-Kuyu

Astăzi, 6 August, Joi

Timp Temperatura Precipitaţii Vânt Presiune Umiditate
00:00 +25°C° 0 mm 3 m/s 750 mmHg 56%
01:00 +25°C° 0 mm 3 m/s 750 mmHg 58%
02:00 +24°C° 0 mm 2 m/s 751 mmHg 59%
03:00 +24°C° 0 mm 2 m/s 751 mmHg 65%
04:00 +24°C° 0 mm 2 m/s 751 mmHg 64%
05:00 +24°C° 0 mm 2 m/s 751 mmHg 62%
06:00 +24°C° 0 mm 1 m/s 752 mmHg 61%
07:00 +25°C° 0 mm 1 m/s 752 mmHg 54%
08:00 +27°C° 0 mm 2 m/s 752 mmHg 47%
09:00 +28°C° 0 mm 2 m/s 752 mmHg 39%
10:00 +29°C° 0 mm 2 m/s 752 mmHg 37%
11:00 +30°C° 0 mm 3 m/s 752 mmHg 35%
12:00 +31°C° 0 mm 3 m/s 752 mmHg 33%
13:00 +31°C° 0 mm 3 m/s 752 mmHg 32%
14:00 +33°C° 0 mm 3 m/s 752 mmHg 32%
15:00 +34°C° 0 mm 3 m/s 752 mmHg 31%
16:00 +34°C° 0 mm 3 m/s 752 mmHg 32%
17:00 +34°C° 0 mm 3 m/s 752 mmHg 33%
18:00 +34°C° 0 mm 3 m/s 752 mmHg 34%
19:00 +31°C° 0 mm 3 m/s 752 mmHg 38%
20:00 +30°C° 0 mm 3 m/s 752 mmHg 41%
21:00 +28°C° 0 mm 4 m/s 753 mmHg 45%
22:00 +28°C° 0 mm 4 m/s 753 mmHg 48%
23:00 +27°C° 0 mm 4 m/s 752 mmHg 52%

Mâine, 7 August, Vineri

Timp Temperatura Precipitaţii Vânt Presiune Umiditate
00:00 +26°C° 0 mm 4 m/s 752 mmHg 55%
01:00 +26°C° 0 mm 4 m/s 752 mmHg 57%
02:00 +25°C° 0 mm 4 m/s 752 mmHg 59%
03:00 +25°C° 0 mm 4 m/s 752 mmHg 61%
04:00 +23°C° 0 mm 4 m/s 752 mmHg 61%
05:00 +23°C° 0 mm 4 m/s 752 mmHg 62%
06:00 +23°C° 0 mm 4 m/s 752 mmHg 62%
07:00 +27°C° 0 mm 4 m/s 752 mmHg 55%
08:00 +29°C° 0 mm 4 m/s 752 mmHg 49%
09:00 +32°C° 0 mm 4 m/s 752 mmHg 43%
10:00 +34°C° 0 mm 3 m/s 752 mmHg 38%
11:00 +35°C° 0 mm 3 m/s 752 mmHg 33%
12:00 +36°C° 0 mm 3 m/s 752 mmHg 29%
13:00 +36°C° 0 mm 3 m/s 752 mmHg 29%
14:00 +36°C° 0 mm 3 m/s 752 mmHg 29%
15:00 +36°C° 0 mm 3 m/s 751 mmHg 28%
16:00 +36°C° 0 mm 3 m/s 751 mmHg 29%
17:00 +36°C° 0 mm 3 m/s 751 mmHg 30%
18:00 +35°C° 0 mm 3 m/s 751 mmHg 31%
19:00 +34°C° 0 mm 2 m/s 751 mmHg 33%
20:00 +32°C° 0 mm 2 m/s 751 mmHg 34%
21:00 +30°C° 0 mm 2 m/s 752 mmHg 36%
22:00 +30°C° 0 mm 2 m/s 751 mmHg 37%
23:00 +30°C° 0 mm 2 m/s 751 mmHg 38%

Poimâine, 8 August, Sâmbătă

Timp Temperatura Precipitaţii Vânt Presiune Umiditate
00:00 +29°C° 0 mm 3 m/s 751 mmHg 39%
01:00 +29°C° 0 mm 3 m/s 751 mmHg 41%
02:00 +28°C° 0 mm 3 m/s 750 mmHg 43%
03:00 +27°C° 0 mm 4 m/s 750 mmHg 45%
04:00 +27°C° 0 mm 4 m/s 750 mmHg 47%
05:00 +27°C° 0 mm 3 m/s 750 mmHg 49%
06:00 +26°C° 0 mm 3 m/s 750 mmHg 51%
07:00 +28°C° 0 mm 3 m/s 750 mmHg 47%
08:00 +30°C° 0 mm 3 m/s 750 mmHg 43%
09:00 +31°C° 0 mm 2 m/s 750 mmHg 40%
10:00 +34°C° 0 mm 2 m/s 749 mmHg 35%
11:00 +35°C° 0 mm 2 m/s 749 mmHg 31%
12:00 +35°C° 0 mm 1 m/s 749 mmHg 27%
13:00 +37°C° 0 mm 2 m/s 749 mmHg 26%
14:00 +37°C° 0 mm 2 m/s 748 mmHg 25%
15:00 +37°C° 0 mm 2 m/s 748 mmHg 24%
16:00 +37°C° 0 mm 3 m/s 748 mmHg 26%
17:00 +36°C° 0 mm 3 m/s 748 mmHg 28%
18:00 +36°C° 0 mm 4 m/s 747 mmHg 30%
19:00 +34°C° 0 mm 4 m/s 748 mmHg 32%
20:00 +33°C° 0 mm 3 m/s 748 mmHg 35%
21:00 +30°C° 0 mm 3 m/s 748 mmHg 37%
22:00 +30°C° 0 mm 2 m/s 748 mmHg 38%
23:00 +29°C° 0 mm 2 m/s 748 mmHg 39%

9 August, Duminică

Timp Temperatura Precipitaţii Vânt Presiune Umiditate
00:00 +28°C° 0 mm 2 m/s 747 mmHg 41%
01:00 +28°C° 0 mm 2 m/s 747 mmHg 43%
02:00 +27°C° 0 mm 2 m/s 747 mmHg 45%
03:00 +27°C° 0 mm 3 m/s 747 mmHg 46%
04:00 +26°C° 0 mm 3 m/s 747 mmHg 48%
05:00 +26°C° 0 mm 3 m/s 747 mmHg 50%
06:00 +26°C° 0 mm 3 m/s 747 mmHg 52%
07:00 +28°C° 0 mm 4 m/s 747 mmHg 48%
08:00 +30°C° 0 mm 4 m/s 747 mmHg 44%
09:00 +32°C° 0 mm 4 m/s 747 mmHg 39%
10:00 +33°C° 0 mm 5 m/s 747 mmHg 37%
11:00 +34°C° 0 mm 5 m/s 747 mmHg 35%
12:00 +35°C° 0 mm 5 m/s 747 mmHg 32%
13:00 +36°C° 0 mm 5 m/s 747 mmHg 32%
14:00 +36°C° 0 mm 5 m/s 747 mmHg 31%
15:00 +36°C° 0 mm 5 m/s 747 mmHg 30%
16:00 +35°C° 0 mm 5 m/s 747 mmHg 32%
17:00 +34°C° 0 mm 5 m/s 747 mmHg 34%
18:00 +33°C° 0 mm 5 m/s 747 mmHg 36%
19:00 +32°C° 0 mm 4 m/s 748 mmHg 37%
20:00 +30°C° 0 mm 4 m/s 748 mmHg 38%
21:00 +30°C° 0 mm 4 m/s 748 mmHg 38%
22:00 +29°C° 0 mm 3 m/s 748 mmHg 42%
23:00 +28°C° 0 mm 3 m/s 748 mmHg 46%

10 August, Luni

Timp Temperatura Precipitaţii Vânt Presiune Umiditate
00:00 +28°C° 0 mm 3 m/s 748 mmHg 50%
01:00 +28°C° 0 mm 3 m/s 748 mmHg 52%
02:00 +27°C° 0 mm 3 m/s 748 mmHg 54%
03:00 +27°C° 0 mm 3 m/s 748 mmHg 55%
04:00 +27°C° 0 mm 3 m/s 748 mmHg 56%
05:00 +26°C° 0 mm 3 m/s 749 mmHg 57%
06:00 +26°C° 0 mm 3 m/s 749 mmHg 58%
07:00 +27°C° 0 mm 3 m/s 749 mmHg 52%
08:00 +27°C° 0 mm 4 m/s 749 mmHg 47%
09:00 +28°C° 0 mm 4 m/s 749 mmHg 42%
10:00 +29°C° 0 mm 4 m/s 749 mmHg 38%
11:00 +29°C° 0 mm 4 m/s 749 mmHg 34%
12:00 +30°C° 0 mm 4 m/s 749 mmHg 30%
13:00 +32°C° 0 mm 4 m/s 749 mmHg 28%
14:00 +33°C° 0 mm 4 m/s 749 mmHg 25%
15:00 +34°C° 0 mm 3 m/s 749 mmHg 23%
16:00 +33°C° 0 mm 3 m/s 749 mmHg 24%
17:00 +33°C° 0 mm 3 m/s 749 mmHg 26%
18:00 +31°C° 0 mm 2 m/s 749 mmHg 27%
19:00 +30°C° 0 mm 3 m/s 749 mmHg 29%
20:00 +29°C° 0 mm 4 m/s 750 mmHg 32%
21:00 +28°C° 0 mm 5 m/s 750 mmHg 34%
22:00 +27°C° 0 mm 4 m/s 750 mmHg 40%
23:00 +26°C° 0 mm 3 m/s 750 mmHg 45%

11 August, Marţi

Timp Temperatura Precipitaţii Vânt Presiune Umiditate
00:00 +25°C° 0 mm 2 m/s 750 mmHg 51%
01:00 +24°C° 0 mm 2 m/s 750 mmHg 53%
02:00 +23°C° 0 mm 1 m/s 750 mmHg 56%
03:00 +23°C° 0 mm 1 m/s 750 mmHg 58%
04:00 +23°C° 0 mm 1 m/s 750 mmHg 58%
05:00 +23°C° 0 mm 1 m/s 750 mmHg 57%
06:00 +24°C° 0 mm 1 m/s 750 mmHg 56%
07:00 +26°C° 0 mm 2 m/s 750 mmHg 49%
08:00 +27°C° 0 mm 2 m/s 750 mmHg 42%
09:00 +29°C° 0 mm 3 m/s 750 mmHg 34%
10:00 +30°C° 0 mm 3 m/s 750 mmHg 31%
11:00 +32°C° 0 mm 4 m/s 750 mmHg 27%
12:00 +33°C° 0 mm 4 m/s 750 mmHg 24%
13:00 +34°C° 0 mm 4 m/s 750 mmHg 23%
14:00 +34°C° 0 mm 4 m/s 750 mmHg 22%
15:00 +35°C° 0 mm 3 m/s 749 mmHg 22%
16:00 +34°C° 0 mm 3 m/s 750 mmHg 23%
17:00 +33°C° 0 mm 4 m/s 750 mmHg 25%
18:00 +33°C° 0 mm 4 m/s 750 mmHg 27%
19:00 +32°C° 0 mm 4 m/s 750 mmHg 29%
20:00 +29°C° 0 mm 5 m/s 750 mmHg 31%
21:00 +28°C° 0 mm 6 m/s 750 mmHg 32%
22:00 +27°C° 0 mm 4 m/s 750 mmHg 35%
23:00 +26°C° 0 mm 3 m/s 750 mmHg 38%
Arată mai mult